This is the latest recevied weather packets stored in our database for station/object AA0PB. If no packets are shown the sender has not sent any weather packets the latest 10 day(s).
| Time | Temp. | Humidity | Pressure | Rain* | Wind** | Luminosity | Snow |
|---|---|---|---|---|---|---|---|
| 1777916020 | 16.67° C | 77% | 1014.1 hPa | 0 mm | - | 269 W/m² | - |
| 1777915717 | 16.67° C | 76% | 1014 hPa | 0 mm | - | 313 W/m² | - |
| 1777915414 | 15.56° C | 80% | 1014.1 hPa | 0 mm | - | 277 W/m² | - |
| 1777915110 | 15.56° C | 79% | 1014.2 hPa | 0 mm | - | 266 W/m² | - |
| 1777914807 | 15.56° C | 81% | 1013.9 hPa | 0 mm | - | 268 W/m² | - |
| 1777914504 | 15° C | 82% | 1014.1 hPa | 0 mm | - | 228 W/m² | - |
| 1777914201 | 15° C | 83% | 1014 hPa | 0 mm | - | 230 W/m² | - |
| 1777913897 | 15° C | 82% | 1014.1 hPa | 0 mm | - | 225 W/m² | - |
| 1777913594 | 15° C | 82% | 1014 hPa | 0 mm | - | 211 W/m² | - |
| 1777913290 | 15° C | 83% | 1013.9 hPa | 0 mm | - | 189 W/m² | - |
| 1777912988 | 14.44° C | 83% | 1013.9 hPa | 0 mm | - | 237 W/m² | - |
| 1777912683 | 14.44° C | 84% | 1013.9 hPa | 0 mm | - | 220 W/m² | - |
| 1777912380 | 14.44° C | 83% | 1013.9 hPa | 0 mm | - | 206 W/m² | - |
| 1777912076 | 14.44° C | 82% | 1014 hPa | 0 mm | - | 182 W/m² | - |
| 1777911772 | 14.44° C | 83% | 1014.1 hPa | 0 mm | - | 183 W/m² | - |
| 1777911469 | 14.44° C | 83% | 1013.8 hPa | 0 mm | - | 151 W/m² | - |
| 1777911166 | 14.44° C | 83% | 1014 hPa | 0 mm | - | 151 W/m² | - |
| 1777910863 | 14.44° C | 83% | 1013.8 hPa | 0 mm | - | 166 W/m² | - |
| 1777910559 | 14.44° C | 83% | 1014 hPa | 0 mm | - | 185 W/m² | - |
| 1777910257 | 15° C | 81% | 1014.1 hPa | 0 mm | - | 163 W/m² | - |
| 1777909954 | 15.56° C | 78% | 1014.1 hPa | 0 mm | - | 167 W/m² | - |
| 1777909651 | 15.56° C | 79% | 1013.8 hPa | 0 mm | - | 156 W/m² | - |
| 1777909348 | 15.56° C | 80% | 1013.8 hPa | 0 mm | - | 168 W/m² | - |
| 1777909046 | 15° C | 80% | 1013.8 hPa | 0 mm | - | 212 W/m² | - |
| 1777908743 | 15° C | 80% | 1013.9 hPa | 0 mm | - | 277 W/m² | - |
* Rain latest hour (hover to see other rain measurements)
** Current wind speed in m/s (hover to see current wind gust speed)